Wetbulb
56.56 56.55 56.27 56.02 56.18 55.97 56.57 57.94 59.65 58.52 57.77 57.29 55.63 54.00 52.24 52.18 51.91 50.34 48.71 48.03 47.32 45.56
56.64 56.68 57.36 57.87 55.85 56.62 57.81 57.25 57.09 57.75 56.99 56.09 54.88 51.35 50.75 50.65 48.90 48.60 47.81 46.24 44.82 44.61
56.74 57.17 57.91 56.55 57.05 57.81 58.29 58.13 57.37 56.87 56.53 54.16 52.11 51.20 50.39 48.80 47.59 46.19 44.99 45.12 44.14 44.22
57.61 58.70 58.32 58.33 58.43 57.93 57.73 58.76 57.85 55.69 53.20 51.37 51.03 49.47 48.39 46.42 45.05 44.53 43.95 44.13 44.02 43.65
58.33 59.05 59.17 59.33 58.44 57.82 57.09 55.13 54.64 53.28 51.60 50.10 48.77 47.47 46.08 44.50 44.44 43.39 43.14 43.08 42.97 43.15
59.11 58.62 58.35 57.59 57.41 56.41 54.29 52.31 50.77 50.62 49.15 47.94 46.55 45.61 44.82 43.87 43.72 43.60 43.26 42.89 42.67 42.41
59.46 59.39 58.18 54.66 52.73 51.57 51.52 49.51 48.75 48.80 47.14 45.76 44.99 44.59 44.09 43.78 43.07 42.67 42.66 42.71 42.93 43.53
52.53 53.00 52.18 50.97 50.19 49.27 48.62 48.01 47.11 45.72 45.07 44.63 44.36 44.05 43.10 42.51 41.95 41.62 42.35 42.83 42.78 41.79
50.12 49.90 49.45 48.69 47.54 46.80 45.93 45.61 45.03 44.23 43.78 43.45 43.29 39.27 39.97 41.22 42.43 42.26 41.55 39.50 35.43 34.70
48.91 47.63 47.13 46.59 46.73 44.80 44.14 44.07 43.01 42.81 42.50 41.48 41.31 39.35 39.84 39.08 40.58 37.39 33.63 30.53 30.08 31.65
47.53 46.95 46.18 45.58 44.20 43.88 42.99 42.14 41.53 40.49 39.94 39.99 40.65 38.44 37.20 35.17 32.03 30.12 29.93 28.74 27.69 26.98
46.80 45.64 44.76 43.82 42.85 42.14 40.87 39.69 39.19 38.87 36.06 34.26 36.06 35.55 33.81 31.19 28.65 27.51 26.41 27.27 27.36 27.12
45.81 44.27 43.71 43.12 41.50 41.03 40.74 40.29 39.47 35.01 33.80 32.48 31.82 33.32 32.31 29.00 25.63 23.75 23.85 25.27 26.22 27.43
44.23 43.52 43.20 42.83 41.66 39.43 36.58 35.41 31.91 29.94 29.81 29.26 29.88 29.76 30.34 28.66 24.70 24.45 24.80 24.08 23.29 23.53
MSLP
1015.27 1015.56 1015.54 1015.81 1015.78 1016.25 1016.32 1016.37 1016.55 1016.84 1017.38 1017.85 1018.24 1019.16 1019.67 1020.18 1020.69 1021.16 1021.75 1022.35 1022.65 1023.07
1014.24 1014.54 1014.87 1015.16 1015.37 1015.51 1015.81 1016.16 1016.57 1016.72 1017.43 1017.77 1018.14 1018.85 1019.39 1020.01 1020.59 1021.11 1021.56 1022.11 1022.65 1023.08
1013.27 1013.93 1014.15 1014.43 1014.92 1015.17 1015.31 1015.81 1016.09 1016.38 1017.18 1017.07 1017.91 1018.26 1019.03 1019.88 1020.56 1021.10 1021.60 1022.09 1022.69 1022.91
1012.45 1012.88 1013.55 1014.30 1014.82 1015.30 1014.67 1014.60 1015.20 1016.03 1016.71 1017.26 1018.00 1018.24 1018.85 1019.71 1020.36 1021.06 1021.75 1022.25 1022.64 1022.90
1012.74 1013.06 1013.18 1013.67 1013.66 1013.79 1013.89 1015.31 1015.60 1015.89 1016.47 1017.07 1017.72 1018.29 1018.91 1019.73 1020.49 1021.01 1021.77 1022.14 1022.54 1022.87
1011.69 1011.87 1012.67 1013.00 1013.00 1013.51 1013.88 1014.68 1015.65 1016.10 1016.40 1016.99 1017.75 1018.34 1019.03 1019.64 1020.31 1020.98 1021.63 1022.06 1022.44 1022.75
1010.15 1010.65 1011.13 1012.67 1013.02 1013.51 1013.78 1014.60 1015.44 1016.07 1016.51 1017.14 1017.80 1018.47 1019.10 1019.65 1020.39 1021.16 1021.54 1022.04 1022.47 1022.53
1009.91 1010.69 1011.70 1012.46 1012.95 1013.54 1014.00 1014.77 1015.59 1016.30 1016.91 1017.55 1017.98 1018.57 1019.30 1019.80 1020.57 1021.13 1021.79 1022.10 1022.43 1022.51
1010.49 1011.32 1011.98 1012.36 1013.00 1013.75 1014.55 1015.34 1015.93 1016.57 1017.06 1017.73 1018.39 1019.01 1019.41 1019.90 1020.61 1021.27 1021.71 1022.05 1022.41 1022.61
1010.89 1011.56 1012.01 1012.67 1013.50 1014.24 1014.91 1015.44 1016.19 1016.83 1017.41 1018.19 1018.56 1018.92 1019.51 1020.18 1020.76 1021.39 1021.94 1022.31 1022.53 1022.74
1011.16 1011.81 1012.31 1013.05 1013.62 1014.28 1014.96 1015.61 1016.28 1017.11 1017.67 1017.92 1018.50 1019.11 1019.83 1020.49 1021.20 1021.74 1022.18 1022.51 1022.78 1022.99
1010.92 1011.63 1012.22 1012.84 1013.53 1014.22 1014.98 1015.94 1016.64 1017.22 1017.84 1018.48 1019.17 1019.56 1020.19 1020.71 1021.38 1022.05 1022.59 1022.80 1022.99 1023.11
1010.51 1011.19 1011.85 1012.48 1013.36 1014.30 1015.11 1015.96 1016.81 1017.65 1018.35 1018.94 1019.62 1020.13 1020.52 1020.94 1021.53 1022.23 1022.63 1022.91 1023.21 1023.31
1010.62 1011.32 1012.04 1012.74 1013.68 1014.55 1015.48 1016.47 1017.49 1018.35 1019.23 1019.74 1020.13 1020.70 1020.96 1021.33 1021.66 1022.15 1022.60 1023.02 1023.40 1023.63
Wind_Speed
18 11 12 13 11 9 10 10 10 11 9 8 7 5 5 5 5 7 5 7 6 4
17 17 13 13 7 7 6 3 4 7 8 7 7 8 8 6 7 7 7 6 6 4
15 12 8 5 8 8 7 7 8 9 9 9 8 10 9 7 6 7 5 5 7 4
13 8 7 7 6 4 2 7 10 11 10 10 8 9 8 7 9 9 7 5 5 5
8 9 11 12 10 12 10 5 5 8 9 10 9 8 9 9 8 10 8 7 5 4
10 5 8 11 11 8 9 9 8 9 10 9 9 9 9 10 10 8 7 6 5 4
13 17 16 9 8 8 9 10 8 7 7 9 9 9 9 9 8 7 6 5 4 3
8 8 10 10 10 9 9 8 8 9 8 9 9 7 9 9 8 7 5 4 3 2
11 10 11 10 10 10 10 10 10 9 9 9 5 13 12 9 7 6 5 4 4 6
12 11 10 11 10 11 11 10 10 9 10 9 9 14 12 11 6 6 6 6 5 5
11 11 12 12 12 11 11 12 11 10 9 9 8 12 13 12 7 7 7 6 5 5
14 14 14 13 14 11 11 10 9 8 9 9 7 14 14 11 7 6 5 5 5 5
13 13 14 13 12 10 9 10 9 9 9 12 11 14 15 10 5 6 4 4 4 7
12 12 12 12 7 7 9 10 9 10 7 9 9 10 15 13 5 4 4 3 1 1
Wind_Direction
222 227 223 220 218 213 210 213 194 191 183 180 172 184 166 159 156 152 149 165 179 167
220 221 228 225 207 214 205 171 170 184 184 174 178 165 155 152 148 156 166 165 151 146
218 218 216 170 177 165 158 160 202 177 185 170 166 152 146 147 150 153 151 149 167 160
219 204 176 152 138 133 260 216 190 173 166 159 164 147 145 159 152 149 150 148 158 160
130 148 150 155 170 233 194 212 174 162 162 156 151 147 148 143 151 147 154 162 168 152
186 196 198 184 208 210 162 148 151 157 152 144 148 144 144 144 149 150 156 157 160 168
183 204 223 174 149 143 146 139 139 138 134 136 137 137 140 143 140 140 139 146 184 196
142 151 152 153 143 135 130 126 127 125 123 132 136 140 143 136 140 131 148 145 169 43
136 146 148 135 126 124 127 129 127 131 134 133 134 134 123 127 129 138 140 122 82 99
145 141 138 131 138 135 133 131 132 136 137 138 134 134 130 123 120 112 107 102 84 78
145 145 143 146 139 141 143 144 145 140 137 123 130 131 125 113 109 102 95 90 88 85
154 153 150 149 147 144 137 134 133 127 115 113 124 121 119 114 108 99 90 83 68 66
150 147 146 142 141 139 136 133 129 117 120 120 113 110 113 107 110 101 91 67 61 40
142 140 141 140 132 122 118 116 118 113 100 100 110 112 111 109 100 114 117 119 108 321